| time (UTC) | temp F | wind direction | speed MPH | gust MPH | rain 1hr in | rain 24hr in | rain mn in | humidity % | barometer mb |
| 20260503021516 | 0 | 0.0 | 0.0 | 0.00 | 0.39 | 0.39 | 1013.0 | ||
| 20260503020012 | 0 | 0.0 | 0.0 | 0.00 | 0.39 | 0.39 | 1013.3 | ||
| 20260503014508 | 71 | 46 | 0.0 | 0.0 | 0.00 | 0.39 | 0.39 | 1 | 1013.2 |
| 20260503013003 | 70 | 51 | 0.0 | 0.0 | 0.00 | 0.39 | 0.39 | 1 | 1013.1 |
| 20260503011603 | 70 | 51 | 0.0 | 0.0 | 0.00 | 0.39 | 0.39 | 1 | 1012.1 |
| 20260503010106 | 70 | 219 | 0.0 | 0.0 | 0.00 | 0.39 | 0.39 | 1 | 1011.7 |
| 20260503004550 | 70 | 219 | 0.0 | 0.0 | 0.01 | 0.39 | 0.39 | 1 | 1012.0 |
| 20260503003056 | 70 | 219 | 0.0 | 0.0 | 0.01 | 0.39 | 0.39 | 1 | 1012.0 |
| 20260503001541 | 70 | 219 | 0.0 | 0.0 | 0.01 | 0.39 | 0.39 | 1 | 1011.2 |
| 20260503000036 | 71 | 226 | 0.0 | 0.0 | 0.01 | 0.38 | 0.38 | 1 | 1011.9 |
| 20260502234532 | 71 | 234 | 0.0 | 0.0 | 0.02 | 0.38 | 0.38 | 1 | 1010.6 |
| 20260502233028 | 72 | 148 | 0.0 | 0.0 | 0.02 | 0.38 | 0.38 | 1 | 1011.0 |
| 20260502231523 | 72 | 148 | 0.0 | 0.0 | 0.04 | 0.38 | 0.38 | 1 | 1011.4 |
| 20260502230019 | 72 | 148 | 0.0 | 0.0 | 0.04 | 0.36 | 0.36 | 1 | 1011.3 |
| 20260502224515 | 72 | 148 | 0.0 | 0.0 | 0.06 | 0.36 | 0.36 | 1 | 1011.5 |
| 20260502223013 | 72 | 148 | 0.0 | 0.0 | 0.07 | 0.36 | 0.36 | 1 | 1011.3 |
| 20260502221506 | 72 | 148 | 0.0 | 0.0 | 0.06 | 0.34 | 0.34 | 1 | 1011.2 |
| 20260502220002 | 72 | 148 | 0.0 | 0.0 | 0.11 | 0.32 | 0.32 | 1 | 1011.3 |
| 20260502214602 | 72 | 148 | 0.0 | 0.0 | 0.13 | 0.30 | 0.30 | 1 | 1011.5 |
| 20260502213053 | 72 | 152 | 0.0 | 0.0 | 0.12 | 0.28 | 0.28 | 1 | 1010.9 |
| 20260502211551 | 72 | 18 | 0.0 | 0.0 | 0.28 | 0.28 | 0.28 | 1 | 1010.8 |
| 20260502210044 | 72 | 51 | 0.0 | 0.0 | 0.21 | 0.21 | 0.21 | 1 | 1011.4 |
| 20260502204540 | 72 | 13 | 0.0 | 0.0 | 0.17 | 0.17 | 0.17 | 1 | 1011.0 |
| 20260502203045 | 74 | 41 | 0.0 | 1.0 | 0.17 | 0.17 | 0.17 | 1 | 1010.9 |
| 20260502201533 | 82 | 76 | 0.0 | 2.0 | 0.00 | 0.00 | 0.00 | 1 | 1011.0 |
| 20260502200026 | 83 | 268 | 0.0 | 0.0 | 0.00 | 0.00 | 0.00 | 1 | 1010.4 |
| 20260502194522 | 83 | 49 | 0.0 | 1.0 | 0.00 | 0.00 | 0.00 | 1 | 1010.4 |
| 20260502193017 | 83 | 79 | 0.0 | 1.0 | 0.00 | 0.00 | 0.00 | 6 | 1010.9 |
| 20260502191513 | 83 | 240 | 0.0 | 0.0 | 0.00 | 0.00 | 0.00 | 19 | 1011.2 |
| 20260502190010 | 84 | 265 | 0.0 | 1.0 | 0.00 | 0.00 | 0.00 | 34 | 1011.2 |
| 20260502184504 | 85 | 9 | 0.0 | 0.0 | 0.00 | 0.00 | 0.00 | 45 | 1011.2 |
| 20260502183059 | 85 | 152 | 0.0 | 1.0 | 0.00 | 0.00 | 0.00 | 54 | 1011.4 |
| 20260502181609 | 87 | 92 | 0.0 | 1.0 | 0.00 | 0.00 | 0.00 | 58 | 1011.3 |
| 20260502163023 | 88 | 138 | 0.0 | 1.0 | 0.00 | 0.00 | 0.00 | 55 | 1012.0 |
| 20260502161519 | 89 | 19 | 0.0 | 2.0 | 0.00 | 0.00 | 0.00 | 59 | 1012.1 |
| 20260502151501 | 88 | 178 | 0.0 | 2.0 | 0.00 | 0.00 | 0.00 | 55 | 1011.6 |
| 20260502123012 | 75 | 167 | 0.0 | 0.0 | 0.00 | 0.00 | 0.00 | 1 | 1010.7 |
| 20260502121510 | 73 | 174 | 0.0 | 0.0 | 0.00 | 0.00 | 0.00 | 1 | 1010.7 |
| 20260502114601 | 70 | 155 | 0.0 | 0.0 | 0.00 | 0.00 | 0.00 | 1 | 1010.5 |
| 20260502113056 | 69 | 155 | 0.0 | 0.0 | 0.00 | 0.00 | 0.00 | 1010.4 | |
| 20260502111551 | 0 | 0.0 | 0.0 | 0.00 | 0.00 | 0.00 | 1010.3 | ||
| 20260502110051 | 0 | 0.0 | 0.0 | 0.00 | 0.00 | 0.00 | 1010.3 | ||
| 20260502104542 | 0 | 0.0 | 0.0 | 0.00 | 0.00 | 0.00 | 1009.9 | ||
| 20260502103038 | 0 | 0.0 | 0.0 | 0.00 | 0.00 | 0.00 | 1009.9 | ||
| 20260502101538 | 0 | 0.0 | 0.0 | 0.00 | 0.00 | 0.00 | 1010.1 | ||
| 20260502091516 | 0 | 0.0 | 0.0 | 0.00 | 0.00 | 0.00 | 1010.5 | ||
| 20260502080105 | 0 | 0.0 | 0.0 | 0.00 | 0.00 | 0.00 | 1010.7 | ||
| 20260502070037 | 0 | 0.0 | 0.0 | 0.00 | 0.00 | 0.00 | 1011.0 | ||
| 20260502064550 | 0 | 0.0 | 0.0 | 0.00 | 0.00 | 0.00 | 1011.0 | ||
| 20260502063035 | 0 | 0.0 | 0.0 | 0.00 | 0.00 | 0.00 | 1011.1 | ||
| 20260502061522 | 0 | 0.0 | 0.0 | 0.00 | 0.00 | 0.00 | 1011.2 | ||
| 20260502060019 | 0 | 0.0 | 0.0 | 0.00 | 0.00 | 0.00 | 1011.3 | ||
| 20260502054514 | 0 | 0.0 | 0.0 | 0.00 | 0.00 | 0.00 | 1011.3 | ||
| 20260502053010 | 0 | 0.0 | 0.0 | 0.00 | 0.00 | 0.00 | 1011.5 | ||
| 20260502051506 | 0 | 0.0 | 0.0 | 0.00 | 0.00 | 0.00 | 1011.4 | ||
| 20260502050002 | 0 | 0.0 | 0.0 | 0.00 | 0.00 | 0.00 | 1011.7 | ||
| 20260502044559 | 0 | 0.0 | 0.0 | 0.00 | 0.00 | 0.00 | 1011.9 | ||
| 20260502043054 | 0 | 0.0 | 0.0 | 0.00 | 0.00 | 0.00 | 1011.8 | ||
| 20260502041551 | 0 | 0.0 | 0.0 | 0.00 | 0.00 | 0.00 | 1011.8 | ||
| 20260502040054 | -90 | 260 | 0.0 | 0.0 | 0.00 | 0.00 | 0.00 | 1 | 1011.9 |
| 20260502034540 | 72 | 260 | 0.0 | 0.0 | 0.00 | 0.00 | 0.00 | 1 | 1011.9 |
| 20260502033037 | 72 | 259 | 0.0 | 0.0 | 0.00 | 0.00 | 0.00 | 1 | 1011.9 |
| 20260502031537 | 72 | 259 | 0.0 | 0.0 | 0.00 | 0.00 | 0.00 | 1 | 1011.9 |
| 20260502030029 | 73 | 260 | 0.0 | 0.0 | 0.00 | 0.00 | 0.00 | 1 | 1012.1 |
| 20260502024524 | 73 | 259 | 0.0 | 0.0 | 0.00 | 0.00 | 0.00 | 1 | 1012.0 |
| 20260502023020 | 73 | 259 | 0.0 | 0.0 | 0.00 | 0.00 | 0.00 | 1 | 1011.9 |